Date String (YYYY-MM-DD hh:mm:ss) UTC,Instrument flags,Ambient pressure (hPa),Sample flow (lpm),Bypass flow (lpm),Sample temperature (°C),Ambient temperature (°C),ASC tube jacket temperature (°C),LED temperature (°C),Box temperature (°C),Sample RH (%),Span deviation,Mass concentration (μg/m³),Mass concentration (μg/m³),Mass concentration (μg/m³)
DateTimeUTC,F1_M11,P_M11,Q1_M11,Q2_M11,T1_M11,T2_M11,T3_M11,T4_M11,T5_M11,U1_M11,ZSPAN_M11,X0_M11,X2_M11,X1_M11
2022-07-18 23:00:00,,0825.9,5.00,0.00,29.3,27.3,00.0,37.9,31.1,24.0,0000.0,0010.61,0005.69,0005.14
2022-07-18 23:01:00,,0825.9,5.00,0.00,29.3,27.5,00.0,37.9,31.1,24.0,0000.0,0010.87,0005.66,0005.12
2022-07-18 23:02:00,,0825.9,4.99,0.00,29.3,27.7,00.0,37.9,31.2,24.8,0000.0,0010.86,0005.61,0005.07
2022-07-18 23:03:00,,0825.9,5.00,0.00,29.3,27.9,00.0,38.0,31.2,24.8,0000.0,0011.09,0005.65,0005.05
2022-07-18 23:04:00,,0825.9,5.01,0.00,29.4,28.1,00.0,38.0,31.3,24.3,0000.0,0011.65,0005.62,0005.02
2022-07-18 23:05:00,,0825.9,5.00,0.00,29.4,27.7,00.0,37.9,31.3,23.9,0000.0,0011.61,0005.57,0004.98
2022-07-18 23:06:00,,0825.8,5.00,0.00,29.3,27.2,00.0,37.9,31.2,24.0,0000.0,0010.95,0005.53,0004.95
2022-07-18 23:07:00,,0825.8,5.00,0.00,29.3,27.2,00.0,37.9,31.2,24.6,0000.0,0010.91,0005.50,0004.93
2022-07-18 23:08:00,,0825.8,5.01,0.00,29.3,27.3,00.0,37.9,31.1,24.2,0000.0,0010.62,0005.47,0004.89
2022-07-18 23:09:00,,0825.8,5.01,0.00,29.3,27.5,00.0,37.9,31.1,24.8,0000.0,0010.07,0005.46,0004.89
2022-07-18 23:10:00,,0825.8,5.01,0.00,29.3,27.7,00.0,37.9,31.2,24.8,0000.0,0010.06,0005.46,0004.88
2022-07-18 23:11:00,,0825.8,4.99,0.00,29.3,27.9,00.0,37.9,31.3,24.6,0000.0,0010.09,0005.47,0004.87
2022-07-18 23:12:00,,0825.7,5.01,0.00,29.4,28.0,00.0,37.9,31.3,24.5,0000.0,0010.91,0005.50,0004.87
2022-07-18 23:13:00,,0825.9,5.00,0.00,29.4,27.6,00.0,37.9,31.3,24.2,0000.0,0010.98,0005.49,0004.86
2022-07-18 23:14:00,,0825.9,4.99,0.00,29.3,27.2,00.0,37.9,31.2,22.5,0000.0,0010.70,0005.38,0004.80
2022-07-18 23:15:00,,0826.0,4.99,0.00,29.3,27.1,00.0,37.9,31.2,22.1,0000.0,0009.85,0005.28,0004.72
2022-07-18 23:16:00,,0826.0,5.01,0.00,29.3,27.3,00.0,37.9,31.1,21.9,0000.0,0009.71,0005.17,0004.63
2022-07-18 23:17:00,,0825.8,5.00,0.00,29.3,27.4,00.0,37.9,31.1,22.2,0000.0,0009.42,0005.04,0004.55
2022-07-18 23:18:00,,0825.9,4.99,0.00,29.3,27.7,00.0,37.9,31.1,22.1,0000.0,0009.93,0004.96,0004.46
2022-07-18 23:19:00,,0825.8,5.01,0.00,29.3,27.9,00.0,37.9,31.2,21.8,0000.0,0010.29,0004.88,0004.39
2022-07-18 23:20:00,,0825.8,5.00,0.00,29.3,28.1,00.0,37.9,31.3,22.1,0000.0,0010.14,0004.79,0004.31
2022-07-18 23:21:00,,0826.1,5.01,0.00,29.4,28.0,00.0,37.9,31.4,22.3,0000.0,0010.04,0004.72,0004.22
2022-07-18 23:22:00,,0825.9,5.00,0.00,29.4,27.4,00.0,37.9,31.3,22.4,0000.0,0009.81,0004.61,0004.14
2022-07-18 23:23:00,,0826.0,5.00,0.00,29.4,27.2,00.0,37.9,31.2,22.4,0000.0,0008.56,0004.47,0004.05
2022-07-18 23:24:00,,0826.0,5.00,0.00,29.3,27.3,00.0,37.9,31.2,22.6,0000.0,0008.53,0004.44,0003.98
2022-07-18 23:25:00,,0826.1,5.00,0.00,29.3,27.4,00.0,37.9,31.1,22.7,0000.0,0008.53,0004.40,0003.93
2022-07-18 23:26:00,,0826.1,4.99,0.00,29.3,27.6,00.0,37.9,31.1,22.8,0000.0,0008.55,0004.40,0003.92
2022-07-18 23:27:00,,0826.0,5.00,0.00,29.3,27.8,00.0,37.9,31.2,22.8,0000.0,0009.00,0004.41,0003.92
2022-07-18 23:28:00,,0825.9,5.01,0.00,29.4,28.1,00.0,38.0,31.3,22.9,0000.0,0009.20,0004.42,0003.92
2022-07-18 23:29:00,,0825.7,4.99,0.00,29.4,28.0,00.0,38.0,31.4,22.3,0000.0,0008.67,0004.41,0003.93
2022-07-18 23:30:00,,0825.7,5.00,0.00,29.4,27.4,00.0,37.9,31.3,21.8,0000.0,0008.22,0004.41,0003.93
2022-07-18 23:31:00,,0825.6,5.00,0.00,29.3,27.1,00.0,37.9,31.2,21.9,0000.0,0008.44,0004.44,0003.93
2022-07-18 23:32:00,,0825.6,5.00,0.00,29.3,27.2,00.0,37.9,31.1,21.9,0000.0,0008.56,0004.41,0003.92
2022-07-18 23:33:00,,0825.6,5.00,0.00,29.3,27.4,00.0,37.9,31.1,21.9,0000.0,0008.74,0004.45,0003.90
2022-07-18 23:34:00,,0825.6,5.00,0.00,29.3,27.6,00.0,37.9,31.1,21.7,0000.0,0008.92,0004.44,0003.89
2022-07-18 23:35:00,,0825.6,5.01,0.00,29.3,27.8,00.0,37.9,31.2,21.5,0000.0,0009.77,0004.41,0003.86
2022-07-18 23:36:00,,0825.6,4.99,0.00,29.3,28.0,00.0,38.0,31.3,21.4,0000.0,0009.78,0004.39,0003.83
2022-07-18 23:37:00,,0825.6,5.00,0.00,29.4,27.9,00.0,37.9,31.3,21.7,0000.0,0009.73,0004.35,0003.80
2022-07-18 23:38:00,,0825.6,5.01,0.00,29.3,27.3,00.0,37.9,31.2,22.0,0000.0,0009.38,0004.34,0003.78
2022-07-18 23:39:00,,0825.6,5.00,0.00,29.3,27.1,00.0,37.9,31.2,22.0,0000.0,0009.29,0004.34,0003.76
2022-07-18 23:40:00,,0825.6,5.00,0.00,29.3,27.2,00.0,37.9,31.1,22.2,0000.0,0009.13,0004.29,0003.71
2022-07-18 23:41:00,,0825.5,5.01,0.00,29.3,27.3,00.0,37.9,31.1,21.8,0000.0,0009.07,0004.23,0003.67
2022-07-18 23:42:00,,0825.5,5.00,0.00,29.3,27.5,00.0,37.9,31.1,21.7,0000.0,0009.19,0004.17,0003.64
2022-07-18 23:43:00,,0825.5,4.99,0.00,29.3,27.8,00.0,37.9,31.2,21.8,0000.0,0009.09,0004.17,0003.62
2022-07-18 23:44:00,,0825.4,5.00,0.00,29.3,28.0,00.0,38.0,31.2,21.8,0000.0,0008.93,0004.15,0003.60
2022-07-18 23:45:00,,0825.4,5.00,0.00,29.4,28.1,00.0,38.0,31.3,21.7,0000.0,0008.59,0004.12,0003.58
2022-07-18 23:46:00,,0825.4,5.00,0.00,29.4,27.7,00.0,37.9,31.3,21.6,0000.0,0007.79,0004.11,0003.57
2022-07-18 23:47:00,,0825.5,4.99,0.00,29.4,27.2,00.0,37.9,31.2,21.6,0000.0,0007.91,0004.11,0003.57
2022-07-18 23:48:00,,0825.5,5.01,0.00,29.3,27.1,00.0,37.9,31.2,21.8,0000.0,0007.88,0004.11,0003.57
2022-07-18 23:49:00,,0825.4,5.00,0.00,29.3,27.3,00.0,37.9,31.1,22.0,0000.0,0007.79,0004.11,0003.56
2022-07-18 23:50:00,,0825.4,5.00,0.00,29.3,27.5,00.0,37.9,31.1,22.0,0000.0,0007.56,0004.10,0003.57
2022-07-18 23:51:00,,0825.4,5.00,0.00,29.3,27.7,00.0,37.9,31.2,22.0,0000.0,0007.54,0004.11,0003.58
2022-07-18 23:52:00,,0825.4,4.99,0.00,29.3,27.9,00.0,38.0,31.2,22.0,0000.0,0007.54,0004.12,0003.59
2022-07-18 23:53:00,,0825.4,5.01,0.00,29.4,28.1,00.0,38.0,31.3,22.1,0000.0,0007.24,0004.17,0003.61
2022-07-18 23:54:00,,0825.3,5.00,0.00,29.4,28.0,00.0,38.0,31.4,22.1,0000.0,0007.19,0004.17,0003.63
2022-07-18 23:55:00,,0825.3,5.00,0.00,29.4,27.4,00.0,37.9,31.3,22.1,0000.0,0007.13,0004.14,0003.64
2022-07-18 23:56:00,,0825.4,4.99,0.00,29.4,27.1,00.0,37.9,31.2,22.2,0000.0,0007.06,0004.14,0003.65
2022-07-18 23:57:00,,0825.3,5.01,0.00,29.3,27.2,00.0,37.9,31.2,22.3,0000.0,0006.99,0004.14,0003.65
2022-07-18 23:58:00,,0825.3,5.00,0.00,29.3,27.4,00.0,37.9,31.1,22.2,0000.0,0006.63,0004.14,0003.66
2022-07-18 23:59:00,,0825.4,4.99,0.00,29.3,27.6,00.0,37.9,31.1,22.4,0000.0,0006.75,0004.16,0003.65
